Погода в Владимирской

Россия / Санкт-Петербург и Ленинградская область     59°34′23″N   30°21′39″E
темп.,
°C
ветер,
м/с
пор.,
м/с
влажн.,
%
обл.,
%
осадки,
мм/ч
давл.,
гПа
погр.,
м
4 марта, чт
чт400:00+1сз61191100 1.5 1002939
03:00−2сз4118483 1.6 1003600
06:00−4сз410870 0.0 1002419
09:00−4сз38890 0.0 1003427
12:00−2сз468039 0.0 1003647
15:00−3сз468167 0.1 1004836
18:00−4сз488298 0.1 1004900
21:00−5сз398488 0.2 1005448
5 марта, пт
пт500:00−6сз38874 0.0 1005308
03:00−7сз37922 0.0 1007255
06:00−8сз379524 0.0 1007337
09:00−8сз379057 0.0 1009375
12:00−6ссз358097 0.0 1011577
15:00−5ссз357699 0.1 1013754
18:00−6сз368199 0.0 1014570
21:00−7сз389189 0.1 1016448
6 марта, сб
сб600:00−8сз259442 0.0 1017157
03:00−9зсз279256 0.0 1018208
06:00−9зсз26940 0.0 1018173
09:00−8зюз38870 0.0 1017306
12:00−4юз497018 0.0 1015802
15:00−3юз6126258 0.0 10101048
18:00−3юз81790100 0.9 10041331
21:00−2зюз81789100 1.8 9991330
7 марта, вс
вс700:00−1зюз71690100 0.8 9941209
03:00−4зсз51082100 2.7 9931027
06:00−8зсз5129367 0.2 993942
09:00−7з5136376 0.3 9931730
12:00−5з5107895 0.8 9911439
15:00−5зсз478698 1.3 989704
18:00−7зсз4883100 1.4 991782
21:00−8с71280100 2.1 9951214
8 марта, пн
пн800:00−10ссз51184100 0.1 999705
03:00−11ссз61190100 0.1 1002748
06:00−13ссз51087100 0.3 1004780
09:00−13ссз51086100 0.3 1007760
12:00−13ссз5982100 0.1 1010754
15:00−11ссз5881100 0.1 1013829
18:00−11с4985100 0.1 1015848
21:00−13ссз41090100 0.1 1018643